GW6354 Weather Reports


Display with metric or nautical units.
time (UTC)temp
F
wind
direction
speed
MPH
gust
MPH
rain 1hr
in
rain 24hr
in
rain mn
in
humidity
%
barometer
mb
20260502213518 52 139 2.0 3.0 0.00 0.08 0.08 72 1021.1
20260502212520 52 126 3.0 4.0 0.00 0.08 0.08 73 1021.1
20260502211523 52 114 2.0 2.0 0.00 0.08 0.08 71 1021.1
20260502210515 53 133 4.0 5.0 0.00 0.08 0.08 69 1021.0
20260502205538 54 123 2.0 3.0 0.00 0.08 0.08 68 1021.1
20260502204520 55 101 4.0 5.0 0.00 0.08 0.08 66 1021.2
20260502203522 55 104 4.0 4.0 0.00 0.08 0.08 64 1021.2
20260502202516 56 159 2.0 3.0 0.00 0.08 0.08 63 1021.2
20260502201558 57 165 4.0 4.0 0.00 0.08 0.08 61 1021.2
20260502200520 58 110 2.0 3.0 0.00 0.08 0.08 58 1021.2
20260502195522 58 81 0.0 1.0 0.00 0.08 0.08 57 1021.3
20260502194515 59 249 1.0 1.0 0.00 0.08 0.08 57 1021.2
20260502193518 59 88 1.0 1.0 0.00 0.08 0.08 56 1021.0
20260502192600 58 12 1.0 1.0 0.00 0.08 0.08 59 1021.0
20260502191542 58 123 2.0 2.0 0.00 0.08 0.08 59 1020.9
20260502190515 62 232 3.0 3.0 0.00 0.08 0.08 50 1020.9
20260502185537 62 293 4.0 4.0 0.01 0.08 0.08 49 1020.9
20260502184520 65 243 3.0 4.0 0.01 0.08 0.08 41 1020.8
20260502183543 64 272 1.0 3.0 0.01 0.08 0.08 42 1020.6
20260502182515 65 279 2.0 2.0 0.01 0.08 0.08 41 1020.6
20260502181537 65 62 1.0 2.0 0.01 0.08 0.07 39 1020.5
20260502180540 66 54 1.0 1.0 0.00 0.08 0.07 40 1020.5
20260502170515 69 188 5.0 7.0 0.02 0.08 0.07 38 1020.4
20260502163543 70 222 7.0 9.0 0.00 0.06 0.05 39 1020.5
20260502162515 70 217 7.0 9.0 0.00 0.06 0.05 38 1020.5
20260502161517 71 221 6.0 9.0 0.00 0.06 0.04 35 1020.4
20260502160520 71 223 12.0 16.0 0.00 0.06 0.04 39 1020.5
20260502151523 73 229 8.0 10.0 0.00 0.06 0.04 32 1020.8
20260502150515 73 231 7.0 10.0 0.00 0.06 0.04 34 1020.9
20260502130515 74 284 10.0 14.0 0.00 0.06 0.03 28 1021.9
20260502123623 74 262 11.0 14.0 0.00 0.06 0.03 28 1022.3
20260502122515 74 257 13.0 18.0 0.00 0.06 0.03 29 1022.4
20260502121517 73 245 11.0 14.0 0.01 0.06 0.03 32 1022.5
20260502120520 74 254 13.0 15.0 0.01 0.06 0.03 31 1022.6
20260502115523 73 247 12.0 14.0 0.01 0.06 0.03 29 1022.8
20260502114535 73 258 8.0 11.0 0.01 0.06 0.03 31 1023.0
20260502113518 73 297 4.0 6.0 0.01 0.06 0.03 27 1023.0
20260502112521 73 226 8.0 11.0 0.01 0.06 0.03 30 1023.1
20260502111523 72 0.0 0.0 0.00 0.05 0.02 29 1023.2
20260502110516 72 241 9.0 12.0 0.00 0.05 0.02 28 1023.3
20260502105518 72 275 10.0 12.0 0.00 0.06 0.02 31 1023.4
20260502104541 72 315 5.0 8.0 0.00 0.06 0.02 28 1023.6
20260502103523 72 240 12.0 14.0 0.00 0.06 0.02 29 1023.7
20260502102516 71 271 6.0 11.0 0.00 0.06 0.02 32 1023.8
20260502101519 71 253 8.0 11.0 0.00 0.06 0.02 29 1024.0
20260502100541 72 257 9.0 12.0 0.00 0.06 0.02 32 1024.1
20260502091524 70 328 4.0 6.0 0.01 0.06 0.02 32 1024.6
20260502090517 69 244 6.0 9.0 0.01 0.06 0.02 35 1024.7
20260502071515 60 123 4.0 6.0 0.00 0.05 0.00 51 1025.5
20260502070518 59 59 2.0 3.0 0.00 0.05 0.00 51 1025.5
20260502065541 58 124 4.0 5.0 0.00 0.05 0.00 55 1025.6
20260502064524 57 118 3.0 4.0 0.00 0.05 0.00 56 1025.8
20260502063518 56 91 3.0 4.0 0.00 0.05 0.00 57 1025.8
20260502062542 54 120 4.0 4.0 0.00 0.05 0.00 60 1025.9
20260502061517 53 141 4.0 6.0 0.00 0.05 0.00 64 1025.9
20260502060521 51 157 6.0 7.0 0.00 0.05 0.00 68 1025.9
20260502055515 51 126 4.0 6.0 0.00 0.05 0.00 67 1025.9
20260502054519 50 124 4.0 5.0 0.00 0.05 0.00 71 1026.0
20260502053543 49 125 7.0 8.0 0.00 0.05 0.00 71 1025.9
20260502052538 48 117 5.0 6.0 0.00 0.05 0.00 78 1026.0
20260502051522 46 108 2.0 3.0 0.00 0.05 0.00 80 1026.0
20260502050516 45 124 3.0 4.0 0.00 0.05 0.00 83 1026.0
20260502045520 44 104 2.0 3.0 0.00 0.05 0.00 85 1026.0
20260502044515 42 101 1.0 1.0 0.00 0.05 0.00 89 1026.0
20260502043520 43 145 4.0 5.0 0.00 0.05 0.00 83 1025.9
20260502042523 42 92 3.0 3.0 0.00 0.05 0.00 87 1025.9
20260502041538 41 131 2.0 2.0 0.00 0.05 0.00 88 1026.0
20260502040522 41 125 2.0 2.0 0.00 0.05 0.00 88 1026.0
20260502035516 42 137 2.0 3.0 0.00 0.05 0.00 85 1025.9
20260502034540 41 163 5.0 5.0 0.00 0.06 0.00 90 1026.0
20260502033535 42 173 4.0 4.0 0.00 0.06 0.00 82 1025.9
20260502032519 42 173 2.0 2.0 0.00 0.06 0.00 86 1025.9
20260502031543 42 168 1.0 1.0 0.00 0.06 0.00 87 1025.8
20260502030517 42 104 3.0 3.0 0.00 0.06 0.00 85 1025.8
20260502025522 43 109 2.0 3.0 0.00 0.06 0.00 84 1025.9
20260502024516 43 98 3.0 3.0 0.00 0.06 0.00 86 1025.9
20260502023520 42 139 3.0 3.0 0.00 0.06 0.00 86 1026.0
20260502022514 43 132 4.0 5.0 0.00 0.06 0.00 85 1026.0
20260502021519 43 132 4.0 4.0 0.00 0.06 0.00 85 1026.0
20260502020523 43 121 4.0 5.0 0.00 0.06 0.00 86 1025.9
20260502015518 42 169 2.0 2.0 0.00 0.06 0.00 85 1025.9
20260502014522 45 148 4.0 4.0 0.00 0.06 0.00 77 1026.0
20260502013516 45 109 3.0 3.0 0.00 0.06 0.00 77 1026.0
20260502012521 46 126 2.0 2.0 0.00 0.06 0.00 75 1026.1
20260502011515 45 350 1.0 1.0 0.00 0.06 0.00 79 1026.2
20260502010519 45 112 3.0 4.0 0.00 0.06 0.00 78 1026.1
20260502005524 46 129 5.0 5.0 0.00 0.06 0.00 76 1026.2
20260502004518 46 161 3.0 4.0 0.00 0.06 0.00 76 1026.2
20260502003542 45 139 3.0 3.0 0.00 0.06 0.00 80 1026.2
20260502002516 45 106 3.0 3.0 0.00 0.06 0.00 78 1026.4
20260502001521 45 128 3.0 3.0 0.00 0.06 0.00 76 1026.5
20260502000515 46 111 5.0 6.0 0.00 0.06 0.00 75 1026.4
20260501235520 46 139 2.0 3.0 0.00 0.06 0.00 76 1026.4
20260501234524 47 115 3.0 3.0 0.00 0.06 0.00 73 1026.5
20260501233518 47 125 3.0 3.0 0.00 0.06 0.00 73 1026.5
20260501232522 48 163 3.0 3.0 0.00 0.06 0.00 71 1026.5
20260501231516 49 124 2.0 3.0 0.00 0.06 0.00 69 1026.5
20260501230521 49 71 2.0 2.0 0.00 0.06 0.00 69 1026.5
20260501225515 48 47 2.0 2.0 0.00 0.06 0.00 71 1026.5
20260501224520 48 155 2.0 2.0 0.00 0.06 0.00 71 1026.5
20260501223524 48 207 2.0 2.0 0.00 0.06 0.00 71 1026.5
20260501222518 49 206 2.0 2.0 0.00 0.06 0.00 69 1026.5
20260501221543 49 109 2.0 2.0 0.00 0.06 0.00 67 1026.4
20260501220517 49 95 2.0 2.0 0.00 0.06 0.00 67 1026.3
20260501215521 50 148 2.0 2.0 0.00 0.06 0.06 66 1026.3
20260501214515 50 121 1.0 2.0 0.00 0.06 0.06 66 1026.3